Rickenbacker, OH

6:18 AM EST on November 21, 2017 (GMT -0500)
Rickenbacker International

Weather History for KLCK - November, 2011

Change the Weather History Date:

Sunday, November 13, 2011

  Actual Average Record
Temperature  
Mean Temperature 60 °F -  
Max Temperature 66 °F 50 °F 72 °F (2010)
Min Temperature 53 °F 34 °F 22 °F (2013)
Degree Days  
Heating Degree Days 6    
Growing Degree Days 10 (Base 50)    
Moisture  
Dew Point 34 °F    
Average Humidity 38    
Maximum Humidity 47    
Minimum Humidity 31    
Precipitation  
Precipitation 0.00 in - - ()
Sea Level Pressure  
Sea Level Pressure 29.84 in    
Wind  
Wind Speed 17 mph (SSW)    
Max Wind Speed 31 mph    
Max Gust Speed 43 mph    
Visibility 10 miles    
Events      
Averages and records for this station are not official NWS values.
T = Trace of Precipitation, MM = Missing Value Source: NWS Daily Summary

Daily Weather History Graph

Daily Weather History Graph

Search for Another Location

Airport or City:

Trip Planner

Search our weather history database for the weather conditions in past years. The results will help you decide how hot, cold, wet, or windy it might be!

Date:

Astronomy

Nov. 13, 2011 Rise Set
Actual Time 7:13 AM EST 5:17 PM EST
Civil Twilight 6:45 AM EST 5:46 PM EST
Nautical Twilight 6:12 AM EST 6:18 PM EST
Astronomical Twilight 5:40 AM EST 6:50 PM EST
Moon 7:25 PM EST (11/13) 9:45 AM EST (11/13)
Length of Visible Light 11h 01m
Length of Day
10h 03m
Waning Gibbous, 93% of the Moon is Illuminated
Nov 13
Waning Gibbous
Nov 18
Last Quarter
Nov 25
New
Dec 2
First Quarter
Dec 10
Full

Hourly Weather History & Observations

Time (EST) Temp. Dew Point Humidity Pressure Visibility Wind Dir Wind Speed Gust Speed Precip Events Conditions
12:15 AM 54.3 °F 25.2 °F 32% 29.95 in 10.0 mi SSW 12.7 mph - N/A   Clear
12:35 AM 53.6 °F 25.9 °F 34% 29.94 in 10.0 mi SSW 13.8 mph 19.6 mph N/A   Clear
12:55 AM 54.5 °F 24.8 °F 32% 29.94 in 10.0 mi SSW 18.4 mph 25.3 mph N/A   Clear
1:15 AM 55.4 °F 24.8 °F 31% 29.94 in 10.0 mi SSW 16.1 mph 24.2 mph N/A   Clear
1:35 AM 54.3 °F 24.8 °F 32% 29.94 in 10.0 mi SSW 13.8 mph 19.6 mph N/A   Clear
1:55 AM 53.6 °F 25.5 °F 34% 29.94 in 10.0 mi SSW 15.0 mph - N/A   Clear
2:15 AM 53.2 °F 26.1 °F 35% 29.94 in 10.0 mi SSW 12.7 mph - N/A   Clear
2:35 AM 53.2 °F 26.2 °F 35% 29.94 in 10.0 mi South 13.8 mph - N/A   Clear
2:55 AM 53.6 °F 26.6 °F 35% 29.94 in 10.0 mi SSW 15.0 mph 19.6 mph N/A   Clear
3:15 AM 53.2 °F 26.8 °F 36% 29.94 in 10.0 mi SSW 11.5 mph - N/A   Clear
3:35 AM 53.8 °F 26.8 °F 35% 29.93 in 10.0 mi SSW 12.7 mph - N/A   Clear
3:55 AM 54.3 °F 26.1 °F 34% 29.92 in 10.0 mi SSW 16.1 mph 20.7 mph N/A   Mostly Cloudy
4:15 AM 54.5 °F 25.5 °F 33% 29.92 in 10.0 mi SSW 17.3 mph 23.0 mph N/A   Mostly Cloudy
4:35 AM 55.2 °F 25.0 °F 31% 29.92 in 10.0 mi SSW 17.3 mph 23.0 mph N/A   Overcast
4:55 AM 55.4 °F 25.0 °F 31% 29.91 in 10.0 mi South 18.4 mph 24.2 mph N/A   Overcast
5:15 AM 55.8 °F 25.0 °F 31% 29.90 in 10.0 mi South 19.6 mph 25.3 mph N/A   Overcast
5:35 AM 55.8 °F 26.6 °F 33% 29.90 in 10.0 mi SSW 18.4 mph 26.5 mph N/A   Overcast
5:55 AM 56.1 °F 27.7 °F 34% 29.89 in 10.0 mi South 17.3 mph 26.5 mph N/A   Overcast
6:15 AM 57.2 °F 28.4 °F 33% 29.88 in 10.0 mi SSW 20.7 mph 28.8 mph N/A   Overcast
6:35 AM 57.2 °F 29.5 °F 35% 29.88 in 10.0 mi South 20.7 mph 31.1 mph N/A   Overcast
6:55 AM 57.7 °F 30.0 °F 35% 29.88 in 10.0 mi SSW 19.6 mph 33.4 mph N/A   Overcast
7:15 AM 57.6 °F 30.4 °F 36% 29.88 in 10.0 mi SSW 19.6 mph 26.5 mph N/A   Overcast
7:55 AM 56.7 °F 31.3 °F 38% 29.89 in 10.0 mi SSE 11.5 mph 16.1 mph N/A   Overcast
8:15 AM 55.4 °F 30.2 °F 38% 29.90 in 10.0 mi South 12.7 mph - N/A   Overcast
8:35 AM 55.4 °F 30.2 °F 38% 29.88 in 10.0 mi South 12.7 mph - N/A   Overcast
8:55 AM 55.6 °F 29.7 °F 37% 29.87 in 10.0 mi South 15.0 mph - N/A   Overcast
9:15 AM 56.3 °F 30.4 °F 37% 29.86 in 10.0 mi South 15.0 mph 21.9 mph N/A   Overcast
9:35 AM 57.0 °F 31.1 °F 37% 29.86 in 10.0 mi South 12.7 mph 21.9 mph N/A   Overcast
9:55 AM 57.9 °F 32.0 °F 37% 29.86 in 10.0 mi South 17.3 mph 21.9 mph N/A   Overcast
10:15 AM 58.8 °F 32.2 °F 37% 29.86 in 10.0 mi South 19.6 mph 24.2 mph N/A   Overcast
10:35 AM 59.2 °F 32.2 °F 36% 29.86 in 10.0 mi South 17.3 mph - N/A   Overcast
10:55 AM 59.0 °F 32.0 °F 36% 29.85 in 10.0 mi South 12.7 mph 24.2 mph N/A   Overcast
11:15 AM 59.2 °F 32.9 °F 37% 29.84 in 10.0 mi South 17.3 mph 21.9 mph N/A   Overcast
11:35 AM 59.9 °F 33.6 °F 37% 29.83 in 10.0 mi South 17.3 mph 24.2 mph N/A   Overcast
11:55 AM 61.0 °F 34.9 °F 38% 29.83 in 10.0 mi South 19.6 mph 25.3 mph N/A   Overcast
12:15 PM 62.1 °F 36.9 °F 39% 29.81 in 10.0 mi South 21.9 mph 29.9 mph N/A   Overcast
12:35 PM 63.0 °F 38.8 °F 41% 29.79 in 10.0 mi SSW 31.1 mph 35.7 mph N/A   Overcast
12:55 PM 63.3 °F 39.9 °F 42% 29.77 in 10.0 mi South 24.2 mph 33.4 mph N/A   Overcast
1:15 PM 64.2 °F 40.8 °F 42% 29.76 in 10.0 mi SSW 25.3 mph 36.8 mph N/A   Overcast
1:35 PM 64.6 °F 41.2 °F 42% 29.76 in 10.0 mi SSW 31.1 mph 42.6 mph N/A   Overcast
1:55 PM 64.6 °F 41.7 °F 43% 29.74 in 10.0 mi SSW 23.0 mph 32.2 mph N/A   Overcast
2:15 PM 65.1 °F 42.3 °F 43% 29.74 in 10.0 mi SSW 25.3 mph 38.0 mph N/A   Overcast
2:35 PM 65.3 °F 42.6 °F 44% 29.74 in 10.0 mi SSW 23.0 mph 32.2 mph N/A   Overcast
2:55 PM 65.7 °F 43.0 °F 44% 29.74 in 10.0 mi SSW 20.7 mph 27.6 mph N/A   Overcast
3:15 PM 65.8 °F 43.3 °F 44% 29.75 in 10.0 mi SSW 16.1 mph 28.8 mph N/A   Overcast
3:35 PM 66.2 °F 43.9 °F 44% 29.75 in 10.0 mi SSW 19.6 mph 32.2 mph N/A   Overcast
3:55 PM 66.6 °F 44.1 °F 44% 29.74 in 10.0 mi SSW 20.7 mph 28.8 mph N/A   Overcast
4:15 PM 66.7 °F 44.2 °F 44% 29.73 in 10.0 mi SSW 20.7 mph 29.9 mph N/A   Overcast
4:35 PM 66.6 °F 44.1 °F 44% 29.72 in 10.0 mi South 26.5 mph 34.5 mph N/A   Overcast
4:55 PM 66.2 °F 44.1 °F 45% 29.72 in 10.0 mi South 26.5 mph 34.5 mph N/A   Mostly Cloudy
5:15 PM 65.7 °F 44.1 °F 46% 29.71 in 10.0 mi South 24.2 mph 32.2 mph N/A   Mostly Cloudy
5:35 PM 65.1 °F 43.9 °F 46% 29.71 in 10.0 mi South 24.2 mph 31.1 mph N/A   Mostly Cloudy
5:55 PM 64.8 °F 44.1 °F 47% 29.71 in 10.0 mi South 25.3 mph 29.9 mph N/A   Scattered Clouds
6:15 PM 64.9 °F 44.2 °F 47% 29.73 in 10.0 mi South 18.4 mph 26.5 mph N/A   Scattered Clouds
6:35 PM 65.3 °F 44.4 °F 47% 29.74 in 10.0 mi SSW 20.7 mph 27.6 mph N/A   Overcast
6:55 PM 65.8 °F 44.6 °F 46% 29.75 in 10.0 mi SSW 18.4 mph 27.6 mph N/A   Overcast
7:15 PM 66.4 °F 44.6 °F 45% 29.75 in 10.0 mi SSW 24.2 mph 29.9 mph N/A   Overcast
7:35 PM 66.7 °F 44.6 °F 45% 29.75 in 10.0 mi SSW 26.5 mph 36.8 mph N/A   Overcast
7:55 PM 66.9 °F 44.6 °F 45% 29.75 in 10.0 mi SSW 27.6 mph 34.5 mph N/A   Mostly Cloudy
8:15 PM 67.1 °F 44.6 °F 44% 29.75 in 10.0 mi SSW 23.0 mph 34.5 mph N/A   Overcast
8:35 PM 67.1 °F 44.6 °F 44% 29.76 in 10.0 mi SSW 25.3 mph 32.2 mph N/A   Overcast
8:55 PM 67.1 °F 44.6 °F 44% 29.76 in 10.0 mi SSW 26.5 mph 35.7 mph N/A   Overcast
9:15 PM 67.1 °F 44.6 °F 44% 29.76 in 10.0 mi SSW 27.6 mph 34.5 mph N/A   Overcast
9:35 PM 66.6 °F 44.2 °F 44% 29.77 in 10.0 mi SSW 24.2 mph 31.1 mph N/A   Mostly Cloudy
9:55 PM 65.7 °F 44.4 °F 46% 29.76 in 10.0 mi SSW 24.2 mph 31.1 mph N/A   Clear
10:15 PM 65.1 °F 44.4 °F 47% 29.76 in 10.0 mi SSW 23.0 mph 32.2 mph N/A   Clear
10:35 PM 65.1 °F 44.6 °F 47% 29.76 in 10.0 mi SSW 23.0 mph 29.9 mph N/A   Clear
10:55 PM 64.9 °F 44.8 °F 48% 29.77 in 10.0 mi SSW 21.9 mph 28.8 mph N/A   Scattered Clouds
11:15 PM 64.9 °F 44.8 °F 48% 29.76 in 10.0 mi SSW 24.2 mph - N/A   Scattered Clouds
11:35 PM 65.3 °F 45.0 °F 48% 29.76 in 10.0 mi SSW 23.0 mph 32.2 mph N/A   Overcast
11:55 PM 65.7 °F 45.0 °F 47% 29.76 in 10.0 mi SSW 20.7 mph 33.4 mph N/A   Overcast